Lexington Weather

Lexington, Massachusetts, USA

34°F
10/30/2020 7:06am 
  • Lexington Conditions: Light snow, Mist, Overcast
  • Temperature: 33.8°F / 1.0°CColder 1.3°F than last hour.
  • Dew Point: 33.1°FDecreased 1.2°Fsince last hour.
  • Relative Humidity: 97
  • Wind: Wind from ENE ENE 2 mph, 10-min avg: 2 mph, gust: 4 mph
  • Barometer: 29.76 in Steady
  • Visibility: 3 miles
  • Rain Today: 0.09 in
  •   
Southeast Middlesex County - Winter Weather Advisory
 - SEE ALL NEARBY ALERTS -

Regional Weather Roundup
for Boston / Norton, MA

        
000
ASUS41 KBOX 290104
RWRBOX

REGIONAL WEATHER ROUNDUP
NATIONAL WEATHER SERVICE BOSTON/NORTON MA
900 PM EDT WED OCT 28 2020

NOTE:  "FAIR" INDICATES FEW OR NO CLOUDS BELOW 12,000 FEET WITH NO 
SIGNIFICANT WEATHER AND/OR OBSTRUCTIONS TO VISIBILITY.

MAZALL-290200-
EASTERN MASSACHUSETTS
  
CITY           SKY/WX    TMP DP  RH WIND       PRES   REMARKS
BOSTON         MOCLDY    46  44  93 NW9       29.97S                  
BEVERLY        FOG       44  43  96 NW7       29.96S VSB 1            
LAWRENCE       MOCLDY    43  42  97 W3        29.98S                  
BEDFORD        CLOUDY    45  44  97 W3        29.96R FOG              
BLUE HILL        N/A     44  44 100 W8        29.95R                  
NORWOOD        CLOUDY    48  44  86 W6        29.97S                  
MARSHFIELD     CLOUDY    50  50 100 NW8G14    29.95S                  
PLYMOUTH       MOCLDY    49  47  93 W8        29.95S                  
TAUNTON        CLOUDY    50  47  89 NW7       29.96S                  
NEW BEDFORD    CLOUDY    51  49  92 NW7       29.95S                  
$$

MAZALL-290200-
CAPE COD AND THE ISLANDS
  
CITY           SKY/WX    TMP DP  RH WIND       PRES   REMARKS
FALMOUTH       CLOUDY    52  50  93 NW8       29.94R                  
HYANNIS        CLOUDY    52  50  93 W6        29.93S                  
CHATHAM        MOCLDY    52  50  93 VRB6      29.94R                  
PROVINCETOWN   CLOUDY    52  51  97 NW17      29.94R                  
NANTUCKET      MOCLDY    57  54  89 W12       29.94R                  
MARTHAS VNYRD  CLOUDY    53  49  86 NW7       29.95R                  
$$
 
MAZALL-290200-
CENTRAL AND WESTERN MASSACHUSETTS
  
CITY           SKY/WX    TMP DP  RH WIND       PRES   REMARKS
WORCESTER      CLOUDY    46  44  93 W8        29.95S                  
FITCHBURG      CLOUDY    45  44  97 CALM      29.97S                  
ORANGE         CLOUDY    45  44  97 SW5       29.97S                  
SPRINGFIELD    CLOUDY    46  46  99 CALM      29.96F FOG              
WESTFIELD      FOG       47  47 100 CALM      29.96F VSB 1/2          
NORTH ADAMS    CLOUDY    47  45  93 W5        29.95F                  
PITTSFIELD     FOG       40  39  97 CALM      29.94F VSB 1/2          
$$
 
RIZALL-290200-
RHODE ISLAND
  
CITY           SKY/WX    TMP DP  RH WIND       PRES   REMARKS
PROVIDENCE     PTCLDY    50  48  93 NW7       29.97F                  
NEWPORT        PTCLDY    50  49  96 NW8       29.95F                  
BLOCK ISLAND   CLEAR     52  48  86 NW5       29.97F                  
SMITHFIELD     CLOUDY    48  48 100 NW5       29.97S                  
WESTERLY       CLEAR     50  47  89 NW3       29.97F                  
$$
 
CTZALL-290200-
CONNECTICUT
  
CITY           SKY/WX    TMP DP  RH WIND       PRES   REMARKS
BRADLEY INTL   CLOUDY    49  47  93 SW3       29.96F                  
HARTFORD       CLOUDY    51  48  89 CALM      29.97F                  
BRIDGEPORT     PTCLDY    53  50  89 SW3       29.97F                  
DANBURY        PTCLDY    49  48  97 CALM      29.98F                  
GROTON         PTCLDY    51  48  89 NW7       29.96F                  
NEW HAVEN      PTCLDY    53  50  89 N3        29.97F                  
CHESTER        FAIR      48  48 100 CALM      29.97S                  
MERIDEN        PTCLDY    45  44  97 CALM      29.97F FOG              
WILLIMANTIC    CLOUDY    50  48  93 VRB3      29.97F                  
OXFORD         PTCLDY    50  50 100 W5        29.97F                  
$$

MEZ002-015-021-024-NHZ003-005-008-011-012-014-VTZ005-008-290200-
NORTHERN NEW ENGLAND
  
CITY           SKY/WX    TMP DP  RH WIND       PRES   REMARKS
PORTLAND ME    CLOUDY    39  39 100 NW3       29.96S                  
BANGOR ME      CLOUDY    36  30  79 CALM      29.93F                  
CONCORD NH     CLOUDY    43  42  97 CALM      29.95F                  
MANCHESTER NH  MOCLDY    44  41  89 CALM      29.94S FOG              
NASHUA NH      CLOUDY    42  42 100 NW3       29.97S                  
PORTSMOUTH NH  CLOUDY    43  41  93 NW3       29.94S FOG              
JAFFREY NH     CLOUDY    44  42  93 CALM      29.95R                  
KEENE NH       CLOUDY    45  44  97 SW5       29.95F                  
BURLINGTON VT  MOCLDY    45  41  86 CALM      29.91S                  
MT. WASHINGTON FOG       25  25 100 W53G61      N/A  VSB 1/16WCI   4  
$$

NYZ052-076-290200-
EASTERN NEW YORK
  
CITY           SKY/WX    TMP DP  RH WIND       PRES   REMARKS
ALBANY         PTCLDY    43  43 100 SE3       29.97F                  
NEW YORK CITY  MOCLDY    59  49  69 W7        29.97F                  
$$
 
ANZALL-290200-
MARINE OBSERVATIONS
  
STATION/POSITION TIME  TEMP    WIND        PRES    VSBY  WAVE
                       AIR SEA DIR/SP/G                  HT/PER
                 (UTC) (F)     (DEG/KT/KT) (MB)    (MI)  (FT/S)
BOSTON BUOY      NOT AVBL
BUZZARDS BAY     0000          320/ 19/ 21 1015.4R
NANTUCKET SOUND  0050      60  300/ 16/ 19   N/A           2/ 2
MASS BAY-STELLWA NOT AVBL
ISLE OF SHOALS   0000   44     310/ 10/ 11 1014.0S
S OF BLOCK IS    0026      62                N/A           4/ 6
$$

......................KEY.........................
  SKY/WX - SKY CONDITION/PRESENT WEATHER
  TMP    - TEMPERATURE IN FAHRENHEIT
  DWPT   - DEWPOINT IN FAHRENHEIT
  RH     - RELATIVE HUMIDITY IN PERCENT
  WIND   - DIRECTION AND SPEED IN MPH
  PRES   - MEAN SEA LEVEL PRESSURE IN INCHES OF HG
  WCI    - WIND CHILL INDEX
  VSB    - VISIBILITY IN MILES
  HX     - HEAT INDEX
  TC     - TEMPERATURE IN CELSIUS
  VRB    - VARIABLE WIND DIRECTION
  N/A    - NOT AVAILABLE
  
      

Other recent Regional Weather Roundups

Fri Oct 30, 6:04am

Fri Oct 30, 5:04am

Fri Oct 30, 4:04am

Fri Oct 30, 3:04am

Fri Oct 30, 2:04am

Fri Oct 30, 1:04am

Fri Oct 30, 12:04am

Thu Oct 29, 11:04pm

Thu Oct 29, 10:04pm

Thu Oct 29, 9:04pm

Thu Oct 29, 8:04pm

Thu Oct 29, 7:04pm

Thu Oct 29, 6:04pm

Thu Oct 29, 5:05pm

Thu Oct 29, 4:05pm

Thu Oct 29, 3:05pm

Thu Oct 29, 2:04pm

Thu Oct 29, 1:04pm

Thu Oct 29, 12:04pm

Thu Oct 29, 11:04am

Thu Oct 29, 10:04am

Thu Oct 29, 9:04am

Thu Oct 29, 8:04am

Thu Oct 29, 7:04am

Thu Oct 29, 6:04am

Thu Oct 29, 5:04am

Thu Oct 29, 4:04am

Thu Oct 29, 3:04am

Thu Oct 29, 2:04am

Thu Oct 29, 1:05am

Thu Oct 29, 12:04am

Wed Oct 28, 11:05pm

Wed Oct 28, 10:04pm

Wed Oct 28, 8:04pm

Wed Oct 28, 7:05pm

Wed Oct 28, 6:04pm

Wed Oct 28, 5:05pm

Wed Oct 28, 4:04pm

Wed Oct 28, 3:04pm

Wed Oct 28, 2:04pm

Wed Oct 28, 1:05pm

Wed Oct 28, 12:05pm

Wed Oct 28, 11:05am

Wed Oct 28, 10:04am

Wed Oct 28, 9:04am

Wed Oct 28, 8:04am

Wed Oct 28, 7:04am

Wed Oct 28, 6:04am

Wed Oct 28, 5:05am

Wed Oct 28, 4:04am

Wed Oct 28, 3:04am

Wed Oct 28, 2:04am

Wed Oct 28, 1:05am

Wed Oct 28, 12:04am

Tue Oct 27, 11:04pm

Tue Oct 27, 10:04pm

Tue Oct 27, 9:05pm

Tue Oct 27, 8:04pm

Tue Oct 27, 7:04pm

Tue Oct 27, 6:04pm

Tue Oct 27, 5:04pm

Tue Oct 27, 4:05pm

Tue Oct 27, 3:04pm

Tue Oct 27, 2:04pm

Tue Oct 27, 1:04pm

Tue Oct 27, 12:04pm

Tue Oct 27, 11:04am

Tue Oct 27, 10:04am

Tue Oct 27, 9:04am

Tue Oct 27, 8:04am

Tue Oct 27, 7:04am

Tue Oct 27, 6:04am

Tue Oct 27, 5:04am

Tue Oct 27, 4:04am

Tue Oct 27, 3:04am

Tue Oct 27, 2:05am

Tue Oct 27, 1:04am

Tue Oct 27, 12:04am

Mon Oct 26, 11:05pm

Mon Oct 26, 10:04pm

Mon Oct 26, 9:04pm

Mon Oct 26, 8:04pm

Mon Oct 26, 7:04pm

Mon Oct 26, 6:04pm

Mon Oct 26, 5:04pm

Mon Oct 26, 4:05pm

Mon Oct 26, 2:04pm

Mon Oct 26, 1:04pm

Mon Oct 26, 12:04pm

Mon Oct 26, 11:05am

Mon Oct 26, 10:04am

Mon Oct 26, 9:04am

Mon Oct 26, 8:04am

Mon Oct 26, 7:04am

Mon Oct 26, 6:04am

Mon Oct 26, 5:04am

Mon Oct 26, 4:04am

Mon Oct 26, 3:04am

Mon Oct 26, 2:04am

Mon Oct 26, 1:04am

Mon Oct 26, 12:04am

Sun Oct 25, 11:05pm

Sun Oct 25, 10:04pm

Sun Oct 25, 9:04pm

Sun Oct 25, 8:04pm

Sun Oct 25, 7:04pm

Sun Oct 25, 6:04pm

Sun Oct 25, 5:04pm

Sun Oct 25, 4:05pm

Sun Oct 25, 3:04pm

Sun Oct 25, 2:04pm

Sun Oct 25, 1:04pm

Sun Oct 25, 12:04pm

Sun Oct 25, 11:04am

Sun Oct 25, 10:04am

Sun Oct 25, 9:04am

Sun Oct 25, 8:04am

Sun Oct 25, 7:04am

Sun Oct 25, 6:04am

Sun Oct 25, 5:04am

Sun Oct 25, 4:04am

Sun Oct 25, 3:04am

Sun Oct 25, 2:04am

Sun Oct 25, 1:05am

Sun Oct 25, 12:04am

Sat Oct 24, 11:04pm

Sat Oct 24, 10:04pm

Sat Oct 24, 9:04pm

Sat Oct 24, 8:04pm

Sat Oct 24, 7:04pm

Sat Oct 24, 6:04pm

Sat Oct 24, 5:05pm

Sat Oct 24, 4:04pm

Sat Oct 24, 3:04pm

Sat Oct 24, 2:04pm

Sat Oct 24, 1:05pm

Sat Oct 24, 12:04pm

Sat Oct 24, 11:05am

Sat Oct 24, 10:05am

Sat Oct 24, 9:04am

Sat Oct 24, 8:04am

Sat Oct 24, 7:04am

Sat Oct 24, 6:04am

Sat Oct 24, 5:04am

Sat Oct 24, 4:04am

Sat Oct 24, 3:04am

Sat Oct 24, 2:04am

Sat Oct 24, 1:05am

Sat Oct 24, 12:04am

Fri Oct 23, 11:04pm

Fri Oct 23, 10:04pm

Fri Oct 23, 9:04pm

Fri Oct 23, 8:05pm

Fri Oct 23, 7:04pm

Fri Oct 23, 6:04pm

Fri Oct 23, 5:05pm

Fri Oct 23, 4:04pm

Fri Oct 23, 3:04pm

Fri Oct 23, 2:05pm

Fri Oct 23, 1:04pm

Fri Oct 23, 12:04pm

Fri Oct 23, 11:04am

Fri Oct 23, 10:04am

Fri Oct 23, 9:04am

Fri Oct 23, 8:04am

Fri Oct 23, 7:04am

Meta data:

ID: 14c8f725-580b-45c3-a34f-1c7c675d2829
Link: https://api.weather.gov/products/14c8f725-580b-45c3-a34f-1c7c675d2829